{"data":{"norad_id":67639,"epoch":"2026-05-25T01:31:28.857216Z","epoch_age_seconds":66699,"freshness":"FRESH","line1":"1 67639U 26020Y   26145.06352844  .00014914  00000+0  55012-3 0  9995","line2":"2 67639  43.0057  68.4798 0002889 275.8918  84.1604 15.27594507 17793","mean_motion":15.27594507,"eccentricity":0.0002889,"inclination_deg":43.0057,"raan_deg":68.4798,"arg_perigee_deg":275.8918,"mean_anomaly_deg":84.1604,"bstar":0.00055012,"rev_number":1779,"period_min":94.265853497207,"perigee_km":481.02347309289,"apogee_km":484.98784132023,"semimajor_km":6861.1426572066,"source":"CELESTRAK","updated_at":"2026-05-25T13:38:21.654253Z"}}